Weather observations for the past three days for
Atwood-Rawlins County City-County Airport
| Date | Time (cdt) | Wind (kph) | Vis. (km) | Weather | Sky Cond. | Temperature (ºC) | Relative Humidity | Wind Chill (°C) | Heat Index (°C) | Pressure | Precipitation (cm) | ||||||
|---|---|---|---|---|---|---|---|---|---|---|---|---|---|---|---|---|---|
| Air | Dwpt | 6 hour | altimeter (cm) | sea level (mb) | 1 hr | 3 hr | 6 hr | ||||||||||
| Max. | Min. | ||||||||||||||||
| 07 | 23:15 | NW 9 | 16.09 | Mostly Cloudy | BKN120 | 14.8 | 6 | 56% | 75.97 | 0.0 | |||||||
| 07 | 22:55 | NW 17 | 16.09 | Mostly Cloudy | BKN120 | 14.7 | 5.7 | 55% | 75.97 | 0.0 | |||||||
| 07 | 22:35 | Calm | 16.09 | Fair | CLR | 14.7 | 5.5 | 54% | 75.95 | 0.0 | |||||||
| 07 | 22:15 | NW 11 | 16.09 | Fair | CLR | 16.1 | 4.9 | 48% | 75.95 | 0.0 | |||||||
| 07 | 21:55 | NW 17 G 26 | 16.09 | Partly Cloudy | SCT100 | 16.9 | 4.4 | 44% | 75.97 | 0.0 | |||||||
| 07 | 21:35 | Calm | 16.09 | Partly Cloudy | SCT110 | 17.2 | 4 | 42% | 75.92 | 0.0 | |||||||
| 07 | 21:15 | W 6 | 16.09 | Partly Cloudy | SCT110 | 16.8 | 5.5 | 47% | 75.92 | 0.0 | |||||||
| 07 | 20:55 | NW 9 | 16.09 | Fair | CLR | 18 | 4.6 | 41% | 75.9 | 0.0 | |||||||
| 07 | 20:35 | NW 7 | 16.09 | Fair | CLR | 18.7 | 4.8 | 40% | 75.9 | 0.0 | |||||||
| 07 | 20:15 | NW 6 | 16.09 | Fair | CLR | 19.6 | 4 | 36% | 75.87 | 0.0 | |||||||
| 07 | 19:55 | NW 9 | 16.09 | Partly Cloudy | SCT110 | 19.8 | 3.4 | 34% | 75.87 | 0.0 | |||||||
| 07 | 19:35 | NW 13 | 16.09 | Mostly Cloudy | BKN110 | 21.9 | 2.7 | 28% | 75.87 | 0.0 | |||||||
| 07 | 19:15 | NW 13 | 16.09 | Mostly Cloudy | BKN110 | 22.2 | 2.9 | 28% | 75.87 | 0.0 | |||||||
| 07 | 18:55 | NW 17 G 26 | 16.09 | Partly Cloudy | SCT120 | 22.5 | 1.7 | 25.1 | 21.6 | 25% | 75.87 | 0.0 | |||||
| 07 | 18:35 | W 20 G 30 | 16.09 | Fair | CLR | 22.9 | 1.4 | 24% | 75.87 | 0.0 | |||||||
| 07 | 18:15 | NW 17 | 16.09 | Fair | CLR | 23.2 | 1.1 | 23% | 75.87 | 0.0 | |||||||
| 07 | 17:55 | NW 17 | 16.09 | Partly Cloudy | SCT120 | 24 | 1 | 22% | 25 | 75.87 | 0.0 | ||||||
| 07 | 17:35 | NW 15 G 30 | 16.09 | Mostly Cloudy | SCT090 BKN120 | 24.8 | 1.3 | 21% | 25 | 75.87 | 0.0 | ||||||
| 07 | 17:15 | NW 26 | 16.09 | Partly Cloudy | SCT090 | 23.5 | 1.2 | 23% | 75.9 | 0.0 | |||||||
| 07 | 16:55 | NW 15 | 16.09 | Partly Cloudy | SCT100 | 23.8 | 0.8 | 22% | 75.9 | 0.0 | |||||||
| 07 | 16:35 | NW 22 | 16.09 | Overcast | OVC100 | 22.6 | 0.6 | 23% | 75.92 | 0.0 | |||||||
| 07 | 16:15 | W 19 | 16.09 | Mostly Cloudy | BKN100 | 23.1 | 0.6 | 23% | 75.92 | 0.0 | |||||||
| 07 | 15:55 | W 13 G 28 | 16.09 | Mostly Cloudy | BKN100 | 23.5 | 0.1 | 21% | 75.92 | 0.0 | |||||||
| 07 | 15:35 | W 22 G 28 | 16.09 | Fair | CLR | 23.8 | 0 | 21% | 75.95 | 0.0 | |||||||
| 07 | 15:15 | NW 22 G 35 | 16.09 | Fair | CLR | 24.6 | 0 | 20% | 25 | 75.97 | 0.0 | ||||||
| 07 | 14:55 | NW 17 | 16.09 | Fair | CLR | 23.3 | -0.3 | 21% | 75.97 | 0.0 | |||||||
| 07 | 14:35 | NW 19 | 16.09 | Fair | CLR | 23.3 | 0.9 | 23% | 76 | 0.0 | |||||||
| 07 | 14:15 | NW 15 | 16.09 | Fair | CLR | 23.5 | 0.5 | 22% | 76 | 0.0 | |||||||
| 07 | 13:55 | NW 13 | 16.09 | Fair | CLR | 22.6 | 1 | 24% | 76.02 | 0.0 | |||||||
| 07 | 13:35 | W 15 G 26 | 16.09 | Fair | CLR | 22.1 | 0.9 | 25% | 76.02 | 0.0 | |||||||
| 07 | 13:15 | NW 17 G 26 | 16.09 | Fair | CLR | 21.9 | 0.9 | 25% | 76.05 | 0.0 | |||||||
| 07 | 12:55 | W 17 | 16.09 | Fair | CLR | 21.5 | 1.2 | 21.5 | 3.5 | 26% | 76.05 | 0.0 | |||||
| 07 | 12:35 | NW 20 G 31 | 16.09 | Fair | CLR | 21 | 1.6 | 28% | 76.07 | 0.0 | |||||||
| 07 | 12:15 | NW 28 G 41 | 16.09 | Fair | CLR | 20.8 | 1.4 | 28% | 76.1 | 0.0 | |||||||
| 07 | 11:55 | NW 26 G 37 | 16.09 | Partly Cloudy | SCT110 | 20.8 | 1.8 | 28% | 76.1 | 0.0 | |||||||
| 07 | 11:35 | NW 30 G 41 | 16.09 | Partly Cloudy | SCT110 | 20.5 | 1.4 | 28% | 76.1 | 0.0 | |||||||
| 07 | 11:15 | NW 31 G 43 | 16.09 | Fair | CLR | 19.7 | 1.7 | 30% | 76.1 | 0.0 | |||||||
| 07 | 10:55 | NW 30 G 35 | 16.09 | Fair | CLR | 18.8 | 1.6 | 32% | 76.12 | 0.0 | |||||||
| 07 | 10:35 | W 30 G 39 | 16.09 | Fair | CLR | 18 | 1.2 | 33% | 76.12 | 0.0 | |||||||
| 07 | 10:15 | W 28 G 39 | 16.09 | Fair | CLR | 16.8 | 0.7 | 34% | 76.12 | 0.0 | |||||||
| 07 | 09:55 | W 30 G 39 | 16.09 | Fair | CLR | 15.7 | 2.1 | 40% | 76.12 | 0.0 | |||||||
| 07 | 09:35 | W 20 G 31 | 16.09 | Fair | CLR | 13.9 | 2.3 | 46% | 76.12 | 0.0 | |||||||
| 07 | 09:15 | W 19 | 16.09 | Fair | CLR | 12.3 | 2.8 | 53% | 76.12 | 0.0 | |||||||
| 07 | 08:55 | W 22 | 16.09 | Fair | CLR | 10.6 | 2.8 | 59% | 76.15 | 0.0 | |||||||
| 07 | 08:35 | W 19 | 16.09 | Fair | CLR | 9.1 | 3 | 66% | 7 | 76.15 | 0.0 | ||||||
| 07 | 08:15 | W 13 | 16.09 | Fair | CLR | 7.2 | 2.8 | 74% | 5 | 76.15 | 0.0 | ||||||
| 07 | 07:55 | W 9 | 16.09 | Fair | CLR | 5.6 | 2 | 78% | 4 | 76.12 | 0.0 | ||||||
| 07 | 07:35 | W 15 | 16.09 | Fair | CLR | 4.8 | 1.6 | 80% | 2 | 76.15 | 0.0 | ||||||
| 07 | 07:15 | W 13 | 16.09 | Fair | CLR | 4 | 1.1 | 82% | 1 | 76.12 | 0.0 | ||||||
| 07 | 06:55 | W 15 | 16.09 | Fair | CLR | 3.5 | 0.9 | 4 | 2.4 | 83% | 0 | 76.15 | 0.0 | ||||
| 07 | 06:35 | W 13 | 16.09 | Fair | CLR | 3.3 | 0.7 | 83% | 0 | 76.15 | 0.0 | ||||||
| 07 | 06:15 | SW 13 | 16.09 | Fair | CLR | 3 | 0.7 | 85% | 0 | 76.15 | 0.0 | ||||||
| 07 | 05:55 | SW 11 | 16.09 | Fair | CLR | 3.5 | 1 | 84% | 1 | 76.17 | 0.0 | ||||||
| 07 | 05:35 | SW 15 | 16.09 | Fair | CLR | 3.3 | 1 | 85% | 0 | 76.2 | 0.0 | ||||||
| 07 | 05:15 | SW 15 | 16.09 | Fair | CLR | 3.2 | 1.1 | 86% | -0 | 76.23 | 0.0 | ||||||
| 07 | 04:55 | SW 9 | 16.09 | Fair | CLR | 2.4 | 0.5 | 87% | 0 | 76.25 | 0.0 | ||||||
| 07 | 04:35 | SW 9 | 16.09 | Fair | CLR | 2.8 | 0.6 | 86% | 1 | 76.28 | 0.0 | ||||||
| 07 | 04:15 | SW 9 | 16.09 | Fair | CLR | 3 | 0.9 | 86% | 1 | 76.28 | 0.0 | ||||||
| 07 | 03:55 | SW 9 | 16.09 | Fair | CLR | 3.3 | 0.9 | 84% | 1 | 76.3 | 0.0 | ||||||
| 07 | 03:35 | SW 11 | 16.09 | Fair | CLR | 3.7 | 1.2 | 84% | 1 | 76.3 | 0.0 | ||||||
| 07 | 03:15 | W 13 | 16.09 | Fair | CLR | 3.6 | 1.3 | 85% | 1 | 76.35 | 0.0 | ||||||
| 07 | 02:55 | SW 15 | 16.09 | Fair | CLR | 4 | 1.5 | 84% | 1 | 76.35 | 0.0 | ||||||
| 07 | 02:15 | SW 15 | 16.09 | Fair | CLR | 3.9 | 1.9 | 87% | 1 | 76.4 | 0.0 | ||||||
| 07 | 01:55 | SW 11 | 16.09 | Fair | CLR | 3.6 | 1.7 | 88% | 1 | 76.43 | 0.0 | ||||||
| 07 | 01:35 | SW 7 | 16.09 | Fair | CLR | 2.8 | 1 | 88% | 1 | 76.45 | 0.0 | ||||||
| 07 | 01:15 | SW 6 | 16.09 | Fair | CLR | 3.3 | 1.7 | 89% | 76.45 | 0.0 | |||||||
| 07 | 00:55 | W 7 | 16.09 | Fair | CLR | 3 | 1.4 | 10.2 | 2.7 | 89% | 1 | 76.48 | 0.0 | ||||
| 07 | 00:35 | W 7 | 16.09 | Fair | CLR | 3 | 1.5 | 90% | 1 | 76.5 | 0.0 | ||||||
| 07 | 00:15 | W 9 | 16.09 | Fair | CLR | 3.5 | 1.7 | 88% | 1 | 76.5 | 0.0 | ||||||
| 06 | 23:55 | W 9 | 16.09 | Fair | CLR | 4 | 1.9 | 86% | 2 | 76.5 | 0.0 | ||||||
| 06 | 23:35 | SW 11 | 16.09 | Fair | CLR | 5 | 2.7 | 85% | 3 | 76.5 | 0.0 | ||||||
| 06 | 23:15 | SW 9 | 16.09 | Fair | CLR | 4.7 | 2.7 | 87% | 3 | 76.53 | 0.0 | ||||||
| 06 | 22:55 | SW 7 | 16.09 | Fair | CLR | 4.8 | 2.7 | 86% | 3 | 76.53 | 0.0 | ||||||
| 06 | 22:35 | SW 7 | 16.09 | Fair | CLR | 4.6 | 2.5 | 86% | 3 | 76.53 | 0.0 | ||||||
| 06 | 22:15 | SW 9 | 16.09 | Fair | CLR | 5.4 | 2.9 | 84% | 4 | 76.53 | 0.0 | ||||||
| 06 | 21:55 | SW 9 | 16.09 | Fair | CLR | 5.3 | 2.7 | 84% | 3 | 76.53 | 0.0 | ||||||
| 06 | 21:35 | W 7 | 16.09 | Fair | CLR | 5.8 | 2.8 | 81% | 5 | 76.53 | 0.0 | ||||||
| 06 | 21:15 | SW 9 | 16.09 | Fair | CLR | 6.2 | 3 | 80% | 5 | 76.53 | 0.0 | ||||||
| 06 | 20:55 | SW 9 | 16.09 | Partly Cloudy | SCT060 | 7.2 | 3.1 | 75% | 6 | 76.53 | 0.0 | ||||||
| 06 | 20:35 | SW 17 | 16.09 | Mostly Cloudy | BKN060 | 8.6 | 3.4 | 70% | 6 | 76.53 | 0.0 | ||||||
| 06 | 20:15 | SW 15 | 16.09 | Partly Cloudy | SCT060 | 9.2 | 3.6 | 68% | 7 | 76.53 | 0.0 | ||||||
| 06 | 19:55 | SW 9 | 16.09 | Overcast | OVC060 | 9.6 | 3.1 | 64% | 9 | 76.53 | 0.0 | ||||||
| 06 | 19:35 | SW 11 | 16.09 | Overcast | OVC060 | 9.7 | 3.2 | 64% | 8 | 76.53 | 0.0 | ||||||
| 06 | 19:15 | SW 15 | 16.09 | Overcast | OVC060 | 10.2 | 2.6 | 60% | 76.53 | 0.0 | |||||||
| 06 | 18:55 | SW 13 | 16.09 | Overcast | OVC060 | 10.1 | 2.7 | 11.2 | 7.3 | 60% | 76.53 | 0.0 | |||||
| 06 | 18:35 | SW 13 | 16.09 | Partly Cloudy | SCT060 | 10.2 | 2.9 | 61% | 76.53 | 0.0 | |||||||
| 06 | 18:15 | W 11 | 16.09 | Fair | CLR | 11 | 1.5 | 52% | 76.53 | 0.0 | |||||||
| 06 | 17:55 | W 13 | 16.09 | Fair | CLR | 11.1 | 2.2 | 55% | 76.53 | 0.0 | |||||||
| 06 | 17:35 | W 9 | 16.09 | Fair | CLR | 10.5 | 1.6 | 54% | 76.53 | 0.0 | |||||||
| 06 | 17:15 | Calm | 16.09 | Partly Cloudy | SCT033 SCT045 | 10.4 | 2.9 | 60% | 76.53 | 0.0 | |||||||
| 06 | 16:55 | W 7 | 16.09 | Partly Cloudy | SCT043 | 10.4 | 2.5 | 58% | 76.56 | 0.0 | |||||||
| 06 | 16:35 | W 7 | 16.09 | Partly Cloudy | SCT070 | 10 | 2.4 | 60% | 9 | 76.58 | 0.0 | ||||||
| 06 | 16:15 | SW 6 | 16.09 | Mostly Cloudy | BKN070 BKN080 | 9.9 | 2.5 | 60% | 76.58 | 0.0 | |||||||
| 06 | 15:55 | SW 6 | 16.09 | Mostly Cloudy | BKN060 BKN080 | 9.6 | 2.7 | 62% | 76.58 | 0.0 | |||||||
| 06 | 15:35 | SW 6 | 16.09 | Overcast | OVC060 | 9.2 | 2.4 | 63% | 76.61 | 0.0 | |||||||
| 06 | 15:15 | Calm | 16.09 | Overcast | SCT039 OVC060 | 8.8 | 3.1 | 68% | 76.63 | 0.0 | |||||||
| 06 | 14:55 | SE 7 | 16.09 | Overcast | SCT023 BKN044 OVC060 | 7.9 | 3.4 | 73% | 7 | 76.63 | 0.0 | ||||||
| 06 | 14:35 | S 6 | 11.27 | Light Rain | SCT017 BKN024 OVC038 | 7.5 | 3.4 | 76% | 76.66 | 0.0 | |||||||
| 06 | 14:15 | N 7 | 16.09 | Overcast | SCT023 BKN027 OVC033 | 8.2 | 3.6 | 73% | 7 | 76.66 | 0.0 | ||||||
| 06 | 13:55 | Calm | 16.09 | Light Rain | SCT021 BKN031 OVC037 | 8.3 | 2.8 | 69% | 76.66 | 0.0 | |||||||
| 06 | 13:35 | SE 7 | 16.09 | Light Drizzle | BKN021 OVC031 | 8 | 2.7 | 70% | 7 | 76.68 | 0.0 | ||||||
| 06 | 13:15 | Calm | 16.09 | Overcast | BKN019 OVC037 | 7.9 | 2.2 | 68% | 76.68 | 0.0 | |||||||
| 06 | 12:55 | W 6 | 16.09 | Light Drizzle | BKN019 OVC039 | 7.8 | 2.9 | 7.8 | 4 | 71% | 76.71 | 0.0 | |||||
| 06 | 12:35 | Calm | 16.09 | Overcast | OVC039 | 7.6 | 3.1 | 73% | 76.68 | 0.0 | |||||||
| 06 | 12:15 | Calm | 16.09 | Light Snow | SCT017 BKN026 OVC035 | 6.9 | 2.5 | 74% | 76.71 | 0.0 | |||||||
| 06 | 11:55 | SW 6 | 16.09 | Light Rain | SCT017 OVC026 | 6.5 | 2.2 | 74% | 76.71 | 0.0 | |||||||
| 06 | 11:35 | S 6 | 16.09 | Rain | SCT019 OVC026 | 6.5 | 2 | 73% | 76.71 | 0.0 | |||||||
| 06 | 11:15 | Calm | 16.09 | Overcast | BKN019 OVC032 | 6.6 | 1.7 | 71% | 76.68 | 0.0 | |||||||
| 06 | 10:55 | SW 6 | 16.09 | Overcast | BKN017 BKN031 OVC080 | 6.8 | 2.4 | 74% | 76.68 | 0.0 | |||||||
| 06 | 10:35 | Calm | 16.09 | Overcast | BKN024 BKN032 OVC080 | 6.9 | 2.4 | 73% | 76.63 | 0.0 | |||||||
| 06 | 10:15 | Calm | 16.09 | Overcast | SCT016 OVC024 | 6.3 | 2.4 | 76% | 76.66 | 0.0 | |||||||
| 06 | 09:55 | Calm | 16.09 | Overcast | OVC017 | 5.9 | 2.5 | 79% | 76.63 | 0.0 | |||||||
| 06 | 09:35 | Calm | 16.09 | Overcast | OVC017 | 5.5 | 2.5 | 81% | 76.63 | 0.0 | |||||||
| 06 | 09:15 | W 6 | 16.09 | Overcast | SCT009 OVC017 | 5.2 | 2.6 | 84% | 76.63 | 0.0 | |||||||
| 06 | 08:55 | Calm | 16.09 | Overcast | SCT007 OVC017 | 5 | 2.5 | 84% | 76.63 | 0.0 | |||||||
| 06 | 08:35 | Calm | 16.09 | Overcast | SCT007 OVC019 | 4.8 | 2.5 | 85% | 76.61 | 0.0 | |||||||
| 06 | 08:15 | Calm | 16.09 | Light Drizzle | BKN019 OVC036 | 4.6 | 2.7 | 88% | 76.61 | 0.0 | |||||||
| 06 | 07:55 | Calm | 16.09 | Light Snow | SCT019 OVC036 | 4.3 | 2.6 | 89% | 76.58 | 0.0 | |||||||
| 06 | 07:35 | Calm | 16.09 | Drizzle | SCT021 BKN033 OVC038 | 4.1 | 2.7 | 91% | 76.58 | 0.0 | |||||||
| 06 | 07:15 | Calm | 16.09 | Drizzle | OVC021 | 4 | 2.6 | 91% | 76.56 | 0.0 | |||||||
| 06 | 06:55 | Calm | 16.09 | Drizzle | OVC021 | 4 | 2.6 | 4.8 | 4 | 91% | 76.53 | 0.0 | |||||
| 06 | 06:35 | SW 6 | 16.09 | Light Rain | OVC021 | 4 | 2.5 | 90% | 76.53 | 0.0 | |||||||
| 06 | 05:55 | W 6 | 16.09 | Light Drizzle | OVC019 | 4 | 2.5 | 90% | 76.5 | 0.0 | |||||||
| 06 | 05:35 | W 6 | 11.27 | Light Snow | BKN019 OVC028 | 4 | 2.2 | 88% | 76.48 | 0.0 | |||||||
| 06 | 05:15 | W 6 | 16.09 | Snow | BKN024 BKN030 OVC035 | 4.1 | 2.2 | 88% | 76.48 | 0.0 | |||||||
| 06 | 04:55 | W 6 | 16.09 | Light Snow | SCT012 SCT021 OVC026 | 4.2 | 2 | 86% | 76.45 | 0.0 | |||||||
| 06 | 04:35 | Calm | 16.09 | Rain | OVC016 | 4.2 | 1.8 | 85% | 76.45 | 0.0 | |||||||
| 06 | 04:15 | N 6 | 16.09 | Light Rain | OVC018 | 4.5 | 2.4 | 86% | 76.45 | 0.0 | |||||||
| 06 | 03:55 | Calm | 16.09 | Drizzle | BKN020 OVC030 | 4.5 | 2.5 | 87% | 76.43 | 0.0 | |||||||
| 06 | 03:35 | Calm | 16.09 | Unknown Precip | OVC032 | 4.5 | 2.7 | 88% | 76.43 | 0.0 | |||||||
| 06 | 03:15 | Calm | 16.09 | Light Snow | SCT016 OVC030 | 4.6 | 2.8 | 88% | 76.43 | 0.0 | |||||||
| 06 | 02:55 | NW 6 | 16.09 | Light Drizzle | OVC016 | 4.5 | 2.7 | 88% | 76.43 | 0.0 | |||||||
| 06 | 02:35 | NW 6 | 16.09 | Light Drizzle | OVC016 | 4.5 | 2.6 | 88% | 76.43 | 0.0 | |||||||
| 06 | 02:15 | Calm | 16.09 | Light Snow | OVC016 | 4.6 | 2.6 | 87% | 76.43 | 0.0 | |||||||
| 06 | 01:55 | Calm | 16.09 | Drizzle | OVC016 | 4.5 | 2.5 | 87% | 76.45 | 0.0 | |||||||
| 06 | 01:35 | N 6 | 16.09 | Drizzle | SCT007 OVC014 | 4.6 | 2.7 | 88% | 76.45 | 0.0 | |||||||
| 06 | 01:15 | Calm | 16.09 | Light Snow | BKN007 BKN012 OVC023 | 4.8 | 3 | 88% | 76.45 | 0.0 | |||||||
| 06 | 00:55 | Calm | 16.09 | Unknown Precip | SCT007 BKN021 OVC026 | 4.8 | 3 | 7.1 | 4.8 | 88% | 76.43 | 0.0 | |||||
| 06 | 00:15 | NE 6 | 16.09 | Light Drizzle | SCT007 OVC018 | 5 | 3 | 87% | 76.4 | 0.0 | |||||||
| 05 | 23:55 | Calm | 16.09 | Light Rain | OVC018 | 5.2 | 3 | 86% | 76.4 | 0.0 | |||||||
| 05 | 23:35 | N 7 | 16.09 | Light Rain | OVC018 | 5.2 | 3.1 | 86% | 4 | 76.4 | 0.0 | ||||||
| 05 | 23:15 | N 7 | 16.09 | Light Rain | BKN018 OVC023 | 5.5 | 3.3 | 86% | 4 | 76.4 | 0.0 | ||||||
| 05 | 22:55 | NE 7 | 16.09 | Light Snow | BKN021 BKN027 | 5.4 | 3.3 | 87% | 4 | 76.4 | 0.0 | ||||||
| 05 | 22:35 | N 6 | 16.09 | Light Snow | OVC026 | 5.6 | 3.6 | 87% | 76.4 | 0.0 | |||||||
| 05 | 22:15 | NE 6 | 16.09 | Light Snow | OVC033 | 5.6 | 3.5 | 87% | 76.35 | 0.0 | |||||||
| 05 | 21:55 | E 6 | 16.09 | Light Snow | BKN020 OVC031 | 5.5 | 3.4 | 87% | 76.35 | 0.0 | |||||||
| 05 | 21:35 | NE 9 | 16.09 | Light Rain | BKN021 BKN026 | 5.6 | 3.6 | 87% | 4 | 76.35 | 0.0 | ||||||
| 05 | 21:15 | NE 6 | 16.09 | Light Rain | OVC025 | 5.8 | 3.6 | 86% | 76.33 | 0.0 | |||||||
| 05 | 20:55 | NE 9 | 16.09 | Light Rain | OVC025 | 6 | 3.7 | 85% | 4 | 76.3 | 0.0 | ||||||
| 05 | 20:35 | NE 9 | 16.09 | Rain | SCT009 BKN025 OVC031 | 6.1 | 4 | 87% | 4 | 76.25 | 0.0 | ||||||
| 05 | 20:15 | NE 11 | 16.09 | Light Rain | SCT007 BKN020 OVC031 | 6.8 | 4.8 | 87% | 5 | 76.25 | 0.0 | ||||||
| 05 | 19:55 | E 6 | 11.27 | Rain | SCT008 BKN017 OVC028 | 7 | 4.7 | 85% | 76.23 | 0.0 | |||||||
| 05 | 19:35 | NE 9 | 16.09 | Rain | SCT008 BKN012 OVC026 | 7 | 4.8 | 86% | 5 | 76.23 | 0.0 | ||||||
| 05 | 19:15 | Calm | 16.09 | Drizzle | BKN014 BKN023 OVC033 | 7 | 4.8 | 86% | 76.2 | 0.0 | |||||||
| 05 | 18:55 | E 7 | 11.27 | Light Rain | SCT015 BKN020 OVC026 | 7 | 4.6 | 7.8 | 7 | 85% | 6 | 76.2 | 0.0 | ||||
| 05 | 18:35 | E 9 | 16.09 | Rain | SCT023 OVC029 | 7.2 | 4.6 | 84% | 6 | 76.17 | 0.0 | ||||||
| 05 | 18:15 | E 9 | 16.09 | Snow | SCT012 SCT019 OVC029 | 7.2 | 4.6 | 84% | 6 | 76.17 | 0.0 | ||||||
| 05 | 17:55 | E 13 | 16.09 | Light Drizzle | SCT011 SCT018 OVC025 | 7.2 | 4.8 | 85% | 5 | 76.17 | 0.0 | ||||||
| 05 | 17:35 | E 15 | 16.09 | Light Rain | SCT010 SCT016 OVC023 | 7.2 | 5 | 86% | 5 | 76.17 | 0.0 | ||||||
| 05 | 17:15 | E 17 | 8.05 | Light Rain | SCT010 BKN023 OVC028 | 7.3 | 5.1 | 86% | 5 | 76.17 | 0.0 | ||||||
| 05 | 16:55 | NE 13 | 16.09 | Light Rain | BKN025 OVC030 | 7.6 | 4.6 | 82% | 6 | 76.2 | 0.0 | ||||||
| 05 | 16:35 | NE 11 | 16.09 | Light Rain | SCT013 OVC023 | 7.7 | 4.9 | 83% | 6 | 76.2 | 0.0 | ||||||
| 05 | 16:15 | N 11 | 16.09 | Rain | SCT015 BKN023 OVC028 | 7.6 | 4.4 | 80% | 6 | 76.23 | 0.0 | ||||||
| 05 | 15:55 | Calm | 16.09 | Light Rain | SCT015 OVC023 | 7.7 | 4 | 78% | 76.23 | 0.0 | |||||||
| 05 | 15:35 | NE 6 | 16.09 | Light Rain | BKN015 OVC021 | 7.7 | 4.2 | 79% | 76.23 | 0.0 | |||||||
| 05 | 15:15 | N 9 | 16.09 | Light Rain | OVC018 | 7.8 | 4.1 | 78% | 6 | 76.23 | 0.0 | ||||||
| 05 | 14:35 | Calm | 16.09 | Light Rain | OVC022 | 7.7 | 3.5 | 75% | 76.28 | 0.0 | |||||||
| 05 | 14:15 | Calm | 16.09 | Light Drizzle | OVC026 | 7.4 | 3 | 74% | 76.28 | 0.0 | |||||||
| 05 | 13:55 | Calm | 16.09 | Light Rain | OVC026 | 7.2 | 2.9 | 74% | 76.28 | 0.0 | |||||||
| 05 | 13:35 | Calm | 16.09 | Light Rain | OVC028 | 7.2 | 3 | 75% | 76.3 | 0.0 | |||||||
| 05 | 13:15 | Calm | 16.09 | Light Rain | OVC030 | 7 | 3 | 76% | 76.33 | 0.0 | |||||||
| 05 | 12:55 | Calm | 16.09 | Light Rain | OVC028 | 7 | 2.8 | 7.9 | 6.6 | 75% | 76.33 | 0.0 | |||||
| 05 | 12:35 | Calm | 16.09 | Light Rain | BKN028 BKN033 | 7 | 2.8 | 75% | 76.33 | 0.0 | |||||||
| 05 | 12:15 | Calm | 16.09 | Light Rain | OVC028 | 7 | 3.5 | 79% | 76.35 | 0.0 | |||||||
| 05 | 11:55 | SE 6 | 11.27 | Snow | SCT023 OVC030 | 7 | 3.5 | 79% | 76.35 | 0.0 | |||||||
| 05 | 11:35 | E 7 | 16.09 | Rain | SCT014 BKN019 OVC030 | 7.1 | 3.9 | 80% | 6 | 76.3 | 0.0 | ||||||
| 05 | 11:15 | NE 11 | 16.09 | Light Rain | BKN019 BKN029 OVC044 | 7.8 | 4 | 77% | 6 | 76.3 | 0.0 | ||||||
| 05 | 10:55 | NE 11 | 16.09 | Light Drizzle | SCT017 BKN030 OVC065 | 7.9 | 4 | 77% | 6 | 76.3 | 0.0 | ||||||
| 05 | 10:35 | N 11 | 16.09 | Light Drizzle | SCT020 BKN030 OVC065 | 7.6 | 3.6 | 76% | 6 | 76.28 | 0.0 | ||||||
| 05 | 10:15 | NE 13 | 16.09 | Light Rain | SCT015 BKN028 OVC065 | 7.5 | 4.1 | 79% | 5 | 76.28 | 0.0 | ||||||
| 05 | 09:55 | NE 11 | 16.09 | Light Rain | BKN031 OVC035 | 7.3 | 4.4 | 82% | 5 | 76.28 | 0.0 | ||||||
| 05 | 09:35 | N 11 | 16.09 | Light Rain | OVC029 | 7 | 4.3 | 83% | 5 | 76.28 | 0.0 | ||||||
| 05 | 09:15 | N 11 | 16.09 | Light Rain | BKN029 OVC035 | 7 | 4.2 | 83% | 5 | 76.28 | 0.0 | ||||||
| 05 | 08:55 | N 9 | 16.09 | Drizzle | OVC032 | 7 | 4 | 81% | 5 | 76.25 | 0.0 | ||||||
| 05 | 08:35 | N 7 | 16.09 | Drizzle | BKN032 OVC042 | 7 | 3.8 | 80% | 6 | 76.23 | 0.0 | ||||||
| 05 | 08:15 | N 11 | 16.09 | Rain | SCT034 BKN044 OVC050 | 6.7 | 3.7 | 81% | 5 | 76.23 | 0.0 | ||||||
| 05 | 07:55 | N 11 | 16.09 | Light Rain | SCT029 SCT040 OVC046 | 6.7 | 3.6 | 81% | 5 | 76.17 | 0.0 | ||||||
| 05 | 07:35 | N 17 | 16.09 | Rain | BKN029 BKN040 OVC046 | 6.7 | 3.7 | 81% | 4 | 76.15 | 0.0 | ||||||
| 05 | 07:15 | N 19 | 16.09 | Light Rain | SCT031 BKN040 OVC050 | 7.1 | 3.4 | 78% | 4 | 76.12 | 0.0 | ||||||
| 05 | 06:55 | N 17 | 16.09 | Light Rain | OVC050 | 7.5 | 3.3 | 11.2 | 7.5 | 75% | 5 | 76.07 | 0.0 | ||||
| 05 | 06:35 | N 17 | 16.09 | Overcast | OVC050 | 7.6 | 3.5 | 76% | 5 | 76.07 | 0.0 | ||||||
| 05 | 06:15 | N 15 | 16.09 | Overcast | OVC050 | 7.8 | 3.6 | 75% | 6 | 76.05 | 0.0 | ||||||
| 05 | 05:55 | N 13 | 16.09 | Overcast | OVC050 | 8 | 3.8 | 75% | 6 | 76.02 | 0.0 | ||||||
| 05 | 05:35 | N 9 | 16.09 | Overcast | OVC050 | 7.9 | 4.2 | 78% | 7 | 76.02 | 0.0 | ||||||
| 05 | 05:15 | N 7 | 16.09 | Light Rain | OVC050 | 7.7 | 4.6 | 81% | 7 | 76.02 | 0.0 | ||||||
| 05 | 04:55 | N 9 | 16.09 | Light Snow | OVC050 | 7.7 | 4.5 | 80% | 6 | 76.02 | 0.0 | ||||||
| 05 | 04:35 | N 9 | 16.09 | Light Rain | OVC060 | 7.5 | 4.2 | 80% | 6 | 76.02 | 0.0 | ||||||
| 05 | 04:15 | NE 9 | 16.09 | Light Snow | SCT041 OVC060 | 7.6 | 4.4 | 80% | 6 | 76.02 | 0.0 | ||||||
| 05 | 03:55 | NE 13 | 16.09 | Light Snow | SCT024 SCT032 OVC060 | 7.6 | 4.4 | 80% | 6 | 76 | 0.0 | ||||||
| 05 | 03:35 | NE 15 | 16.09 | Rain | SCT025 SCT031 BKN037 | 7.7 | 4.6 | 81% | 5 | 76 | 0.0 | ||||||
| 05 | 03:15 | NE 11 | 16.09 | Light Snow | SCT027 BKN035 BKN060 | 8.2 | 5.9 | 86% | 7 | 76.02 | 0.0 | ||||||
| 05 | 02:55 | NE 11 | 16.09 | Rain | SCT027 BKN036 BKN049 | 8.4 | 5.9 | 84% | 7 | 76.02 | 0.0 | ||||||
| 05 | 02:35 | Calm | 16.09 | Light Snow | SCT034 BKN041 OVC060 | 8.6 | 5.5 | 81% | 76.05 | 0.0 | |||||||
| 05 | 02:15 | E 9 | 16.09 | Rain | SCT045 BKN065 OVC075 | 9.3 | 4.8 | 74% | 8 | 76.05 | 0.0 | ||||||
| 05 | 01:55 | NE 13 | 16.09 | Overcast | OVC075 | 10.1 | 3.5 | 64% | 76.02 | 0.0 | |||||||
| 05 | 01:35 | NE 24 | 16.09 | Mostly Cloudy | SCT090 BKN110 | 10.3 | 3.3 | 62% | 75.97 | 0.0 | |||||||
| 05 | 01:15 | NE 31 | 16.09 | Partly Cloudy | SCT110 | 10.7 | 3.7 | 62% | 75.95 | 0.0 | |||||||
| 05 | 00:55 | NE 31 G 39 | 16.09 | Fair | CLR | 11.5 | 3.2 | 22.4 | 11.5 | 57% | 75.92 | 0.0 | |||||
| 05 | 00:35 | NE 35 G 43 | 16.09 | Partly Cloudy and Breezy | SCT100 SCT120 | 12 | 2.7 | 53% | 75.84 | 0.0 | |||||||
| 05 | 00:15 | NE 33 G 44 | 16.09 | Partly Cloudy and Breezy | SCT090 | 12.5 | 2.1 | 49% | 75.82 | 0.0 | |||||||
| 04 | 23:55 | NE 31 G 50 | 16.09 | Partly Cloudy | SCT090 | 13 | 2 | 47% | 75.84 | 0.0 | |||||||
| Date | Time (cdt) | Wind (kph) | Vis. (km) | Weather | Sky Cond. | Air | Dwpt | Max. | Min. | Relative Humidity | Wind Chill (°C) | Heat Index (°C) | altimeter (cm) | sea level (mb) | 1 hr | 3 hr | 6 hr |
| 6 hour | |||||||||||||||||
| Temperature (ºC) | Pressure | Precipitation (cm) | |||||||||||||||